TimeEDT,TemperatureF,Dew PointF,Humidity,Sea Level PressureIn,VisibilityMPH,Wind Direction,Wind SpeedMPH,Gust SpeedMPH,PrecipitationIn,Events,Conditions,WindDirDegrees,DateUTC
12:54 AM,46.0,33.1,61,30.14,10.0,SSE,3.5,-,N/A,,Mostly Cloudy,150,2012-05-18 04:54:00
1:54 AM,46.0,35.1,66,30.11,10.0,SSE,5.8,-,N/A,,Overcast,150,2012-05-18 05:54:00
2:54 AM,48.9,36.0,61,30.10,10.0,Calm,Calm,-,N/A,,Overcast,0,2012-05-18 06:54:00
3:54 AM,46.9,37.9,71,30.11,10.0,East,3.5,-,N/A,,Mostly Cloudy,80,2012-05-18 07:54:00
4:54 AM,46.0,39.0,76,30.12,10.0,SSE,5.8,-,N/A,,Scattered Clouds,160,2012-05-18 08:54:00
5:54 AM,48.9,42.1,77,30.14,10.0,Calm,Calm,-,0.00,Rain,Light Rain,0,2012-05-18 09:54:00
6:54 AM,48.9,43.0,80,30.14,10.0,Calm,Calm,-,0.00,,Mostly Cloudy,0,2012-05-18 10:54:00
7:54 AM,52.0,44.1,74,30.14,10.0,SSE,3.5,-,N/A,,Clear,160,2012-05-18 11:54:00
8:00 AM,53.6,44.6,72,30.13,10.0,SSE,3.5,-,N/A,,Mostly Cloudy,150,2012-05-18 12:00:00
8:54 AM,59.0,42.1,53,30.14,10.0,South,10.4,-,N/A,,Mostly Cloudy,190,2012-05-18 12:54:00
9:54 AM,62.1,42.1,48,30.14,10.0,South,6.9,-,N/A,,Mostly Cloudy,190,2012-05-18 13:54:00
10:54 AM,66.9,41.0,39,30.13,10.0,SSW,11.5,-,N/A,,Mostly Cloudy,200,2012-05-18 14:54:00
11:54 AM,72.0,41.0,33,30.12,10.0,WSW,5.8,-,N/A,,Scattered Clouds,240,2012-05-18 15:54:00
12:54 PM,73.9,43.0,33,30.12,10.0,SSW,10.4,-,N/A,,Mostly Cloudy,200,2012-05-18 16:54:00
1:54 PM,77.0,42.1,29,30.09,10.0,SSE,9.2,-,N/A,,Mostly Cloudy,150,2012-05-18 17:54:00
2:54 PM,75.0,48.0,38,30.06,10.0,East,11.5,-,N/A,,Mostly Cloudy,100,2012-05-18 18:54:00
3:54 PM,78.1,45.0,31,30.02,10.0,SSE,12.7,18.4,N/A,,Mostly Cloudy,150,2012-05-18 19:54:00
4:54 PM,78.1,44.1,30,30.01,10.0,SE,16.1,23.0,N/A,,Clear,140,2012-05-18 20:54:00
5:54 PM,78.1,39.9,25,30.01,10.0,South,18.4,24.2,N/A,,Clear,190,2012-05-18 21:54:00
6:54 PM,75.9,39.0,26,30.01,10.0,South,15.0,-,N/A,,Clear,170,2012-05-18 22:54:00
7:54 PM,73.9,39.9,29,30.01,10.0,South,12.7,-,N/A,,Clear,170,2012-05-18 23:54:00
8:54 PM,71.1,37.0,29,30.01,10.0,South,9.2,-,N/A,,Clear,190,2012-05-19 00:54:00
9:54 PM,55.0,46.0,72,30.03,10.0,Calm,Calm,-,N/A,,Clear,0,2012-05-19 01:54:00
10:54 PM,55.0,46.0,72,30.04,10.0,Calm,Calm,-,N/A,,Clear,0,2012-05-19 02:54:00
11:54 PM,52.0,45.0,77,30.05,10.0,SSE,5.8,-,N/A,,Clear,150,2012-05-19 03:54:00